sat.trackr.live / text

‹ back to catalog

STARLINK-5555

NORAD 55386 · 2023-013BH

PAYLOAD ACTIVE UNKNOWN

§ Identity

Operator
Country
US
Launch date
2023-01-26
Launch site
AFETR
Launch vehicle
Mass (kg)
RCS (m²)

Purposes: comms

External: N2YO · Heavens-Above · Gunter

§ Orbital elements

Epoch: 2026-05-24T13:32:49.426944Z

Period
94.27 min
Inclination
43.0043°
Eccentricity
0.0002006
Mean motion
15.27575655 rev/d
Perigee alt
481.7 km
Apogee alt
484.4 km
Semi-major
6,861.2 km
B*
2.2658e-5
RAAN
249.9118°
Arg perigee
278.3961°
Mean anomaly
81.6663°
Rev number
18,310

§ Raw data

STARLINK-55551 55386U 23013BH  26144.56446096  .00000361  00000+0  22658-4 0  99992 55386  43.0043 249.9118 0002006 278.3961  81.6663 15.27575655183102

JSON: /api/v1/satellites/55386 · /tle

For live sub-satellite position, see the globe view (requires WebGL).

§ Visibility from observer

Set your observer location to see the next 7 days of passes ≥ 10°. The values pass through the URL so the page stays shareable.

No JS? Fill the form by hand. The geolocation button needs JavaScript.